Weather History for Moriarty, NM

Change the Weather History Date:

Wednesday, May 22, 2013

  Actual Average (KABQ) Record (KABQ)
Temperature  
Mean Temperature 59 °F 68 °F  
Max Temperature 84 °F 81 °F 96 °F (1984)
Min Temperature 34 °F 54 °F 35 °F (1962)
Degree Days  
Heating Degree Days 6 1  
Month to date heating degree days 63  
Since 1 July heating degree days 4167  
Cooling Degree Days 0 4  
Month to date cooling degree days 47  
Year to date cooling degree days 54  
Growing Degree Days 9 (Base 50)    
Moisture  
Dew Point 15 °F    
Average Humidity 18    
Maximum Humidity 38    
Minimum Humidity 7    
Precipitation  
Precipitation 0.00 in 0.01 in 0.98 in (1940)
Month to date precipitation 0.35  
Year to date precipitation 2.39  
Snow  
Snow 0.00 in - - ()
Month to date snowfall  
Since 1 July snowfall  
Snow Depth -    
Sea Level Pressure  
Sea Level Pressure 30.01 in    
Wind  
Wind Speed 5 mph (SW)    
Max Wind Speed 16 mph    
Max Gust Speed 28 mph    
Visibility 10 miles    
Events      
T = Trace of Precipitation, MM = Missing Value Source: NWS Daily Summary

Daily Weather History Graph

Daily Weather History Graph

Search for Another Location

Airport:

Trip Planner

Search our weather history database for the weather conditions in past years. The results will help you decide how hot, cold, wet, or windy it might be!

Date:

Astronomy

May. 22, 2013 Rise Set
Actual Time 5:55 AM MDT 8:06 PM MDT
Civil Twilight 5:27 AM MDT 8:34 PM MDT
Nautical Twilight 4:52 AM MDT 9:09 PM MDT
Astronomical Twilight 4:14 AM MDT 9:47 PM MDT
Moon 5:36 PM MDT (5/22) 3:55 AM MDT (5/22)
Length of Visible Light 15h 07m
Length of Day
14h 10m
Waxing Gibbous, 92% of the Moon is Illuminated
May 22
Waxing Gibbous
May 24
Full
May 31
Last Quarter
Jun 8
New
Jun 16
First Quarter

Hourly Weather History & Observations

Time (MDT) Temp. Windchill Dew Point Humidity Pressure Visibility Wind Dir Wind Speed Gust Speed Precip Events Conditions
12:15 AM 50.5 °F - 14.5 °F 24% 30.04 in 10.0 mi NW 3.5 mph - N/A   Clear
12:35 AM 44.1 °F 42.5 °F 11.1 °F 26% 30.03 in 10.0 mi North 3.5 mph - N/A   Clear
12:55 AM 45.9 °F 44.6 °F 12.6 °F 26% 30.02 in 10.0 mi North 3.5 mph - N/A   Clear
1:15 AM 43.0 °F 40.3 °F 11.5 °F 28% 30.02 in 10.0 mi NNW 4.6 mph - N/A   Clear
1:35 AM 42.3 °F 38.6 °F 11.3 °F 28% 30.01 in 10.0 mi NNW 5.8 mph - N/A   Clear
1:55 AM 41.5 °F - 10.8 °F 28% 30.01 in 10.0 mi Calm Calm - N/A   Clear
2:15 AM 42.1 °F 40.2 °F 12.2 °F 30% 30.01 in 10.0 mi North 3.5 mph - N/A   Clear
2:35 AM 41.0 °F 38.0 °F 12.6 °F 31% 30.01 in 10.0 mi NE 4.6 mph - N/A   Clear
2:55 AM 39.2 °F 37.0 °F 11.1 °F 32% 30.01 in 10.0 mi NE 3.5 mph - N/A   Clear
3:15 AM 39.9 °F 37.8 °F 11.5 °F 31% 30.01 in 10.0 mi NE 3.5 mph - N/A   Clear
3:35 AM 36.0 °F 31.1 °F 9.3 °F 33% 30.01 in 10.0 mi North 5.8 mph - N/A   Clear
3:55 AM 37.0 °F 32.4 °F 10.9 °F 34% 30.02 in 10.0 mi North 5.8 mph - N/A   Clear
4:15 AM 38.3 °F 34.8 °F 12.2 °F 34% 30.02 in 10.0 mi NNE 4.6 mph - N/A   Clear
4:35 AM 36.9 °F 34.3 °F 10.8 °F 34% 30.02 in 10.0 mi NNE 3.5 mph - N/A   Clear
4:55 AM 37.6 °F 34.0 °F 10.4 °F 33% 30.02 in 10.0 mi West 4.6 mph - N/A   Clear
5:15 AM 37.4 °F 33.8 °F 11.7 °F 35% 30.02 in 10.0 mi NW 4.6 mph - N/A   Clear
5:35 AM 37.4 °F 34.9 °F 13.5 °F 38% 30.02 in 10.0 mi NW 3.5 mph - N/A   Clear
5:55 AM 34.3 °F - 10.0 °F 36% 30.02 in 10.0 mi Calm Calm - N/A   Clear
6:15 AM 37.6 °F - 12.4 °F 36% 30.03 in 10.0 mi Calm Calm - N/A   Clear
6:35 AM 41.9 °F - 13.8 °F 32% 30.04 in 10.0 mi Calm Calm - N/A   Clear
6:55 AM 42.6 °F - 14.7 °F 32% 30.04 in 10.0 mi Calm Calm - N/A   Clear
7:15 AM 46.4 °F - 16.5 °F 30% 30.05 in 10.0 mi Calm Calm - N/A   Clear
7:35 AM 51.1 °F - 20.8 °F 31% 30.04 in 10.0 mi South 5.8 mph - N/A   Clear
7:55 AM 54.3 °F - 24.8 °F 32% 30.05 in 10.0 mi SSW 3.5 mph - N/A   Clear
8:15 AM 55.9 °F - 24.3 °F 29% 30.05 in 10.0 mi Calm Calm - N/A   Clear
8:35 AM 57.4 °F - 25.3 °F 29% 30.05 in 10.0 mi SSE 4.6 mph - N/A   Clear
8:55 AM 61.0 °F - 26.6 °F 27% 30.05 in 10.0 mi South 6.9 mph - N/A   Clear
9:15 AM 63.9 °F - 24.1 °F 22% 30.05 in 10.0 mi South 3.5 mph - N/A   Clear
9:35 AM 67.6 °F - 22.8 °F 18% 30.05 in 10.0 mi South 4.6 mph - N/A   Clear
9:55 AM 69.4 °F - 21.9 °F 17% 30.05 in 10.0 mi South 5.8 mph - N/A   Clear
10:15 AM 71.4 °F - 21.4 °F 15% 30.05 in 10.0 mi SE 5.8 mph - N/A   Clear
10:35 AM 73.0 °F - 20.8 °F 14% 30.05 in 10.0 mi SE 4.6 mph - N/A   Clear
10:55 AM 73.8 °F - 19.8 °F 13% 30.04 in 10.0 mi South 5.8 mph - N/A   Clear
11:15 AM 75.7 °F - 20.1 °F 12% 30.04 in 10.0 mi SE 6.9 mph - N/A   Clear
11:35 AM 76.3 °F - 20.3 °F 12% 30.04 in 10.0 mi SE 8.1 mph - N/A   Clear
11:55 AM 77.2 °F - 20.3 °F 12% 30.04 in 10.0 mi SE 6.9 mph - N/A   Clear
12:15 PM 78.4 °F - 19.9 °F 11% 30.03 in 10.0 mi South 12.7 mph 16.1 mph N/A   Clear
12:35 PM 78.6 °F - 19.9 °F 11% 30.02 in 10.0 mi South 10.4 mph - N/A   Clear
12:55 PM 79.2 °F - 19.2 °F 11% 30.01 in 10.0 mi ESE 9.2 mph - N/A   Clear
1:15 PM 81.1 °F - 17.1 °F 9% 30.01 in 10.0 mi West 15.0 mph 21.9 mph N/A   Clear
1:35 PM 81.9 °F - 16.2 °F 9% 30.00 in 10.0 mi WSW 16.1 mph 25.3 mph N/A   Clear
1:55 PM 81.1 °F - 15.3 °F 8% 30.00 in 10.0 mi West 13.8 mph 18.4 mph N/A   Clear
2:15 PM 82.2 °F - 14.2 °F 8% 30.00 in 10.0 mi WSW 9.2 mph 24.2 mph N/A   Clear
2:35 PM 82.6 °F - 14.2 °F 8% 30.00 in 10.0 mi WNW 11.5 mph 27.6 mph N/A   Clear
2:55 PM 82.8 °F - 13.1 °F 7% 29.99 in 10.0 mi WSW 13.8 mph 19.6 mph N/A   Clear
3:15 PM 82.4 °F - 14.0 °F 8% 29.98 in 10.0 mi WSW 9.2 mph 18.4 mph N/A   Clear
3:35 PM 83.1 °F - 14.4 °F 8% 29.98 in 10.0 mi West 12.7 mph 20.7 mph N/A   Clear
3:55 PM 83.5 °F - 14.7 °F 8% 29.97 in 10.0 mi West 9.2 mph 25.3 mph N/A   Clear
4:15 PM 84.2 °F - 15.1 °F 8% 29.96 in 10.0 mi West 15.0 mph 21.9 mph N/A   Clear
4:35 PM 84.0 °F - 14.5 °F 7% 29.96 in 10.0 mi SW 6.9 mph 21.9 mph N/A   Clear
4:55 PM 84.2 °F - 14.2 °F 7% 29.96 in 10.0 mi West 12.7 mph 17.3 mph N/A   Clear
5:15 PM 82.9 °F - 14.5 °F 8% 29.95 in 10.0 mi West 10.4 mph 18.4 mph N/A   Clear
5:35 PM 82.9 °F - 14.7 °F 8% 29.95 in 10.0 mi SSW 6.9 mph - N/A   Clear
5:55 PM 84.0 °F - 14.9 °F 8% 29.95 in 10.0 mi West 15.0 mph 19.6 mph N/A   Clear
6:15 PM 82.8 °F - 14.4 °F 8% 29.94 in 10.0 mi WSW 9.2 mph 19.6 mph N/A   Clear
6:35 PM 82.0 °F - 14.0 °F 8% 29.94 in 10.0 mi South 8.1 mph - N/A   Clear
6:55 PM 81.7 °F - 13.3 °F 8% 29.94 in 10.0 mi SW 15.0 mph - N/A   Clear
7:15 PM 80.8 °F - 12.9 °F 8% 29.95 in 10.0 mi SW 12.7 mph - N/A   Clear
7:35 PM 75.7 °F - 12.2 °F 9% 29.95 in 10.0 mi SSW 8.1 mph - N/A   Clear
7:55 PM 71.2 °F - 11.3 °F 10% 29.96 in 10.0 mi SSW 5.8 mph - N/A   Clear
8:15 PM 67.5 °F - 11.1 °F 11% 29.96 in 10.0 mi SSW 9.2 mph - N/A   Clear
8:35 PM 65.8 °F - 8.6 °F 11% 29.96 in 10.0 mi SSW 8.1 mph - N/A   Clear
8:55 PM 64.9 °F - 9.9 °F 12% 29.98 in 10.0 mi South 4.6 mph - N/A   Clear
9:15 PM 65.5 °F - 10.2 °F 12% 29.98 in 10.0 mi SW 3.5 mph - N/A   Clear
9:35 PM 67.1 °F - 10.4 °F 11% 29.98 in 10.0 mi Calm Calm - N/A   Clear
9:55 PM 62.4 °F - 8.6 °F 12% 29.99 in 10.0 mi Calm Calm - N/A   Clear
10:15 PM 61.5 °F - 8.6 °F 12% 30.00 in 10.0 mi SSE 8.1 mph - N/A   Clear
10:35 PM 64.9 °F - 9.5 °F 11% 30.00 in 10.0 mi Calm Calm - N/A   Clear
10:55 PM 65.8 °F - 9.5 °F 11% 30.00 in 10.0 mi West 3.5 mph - N/A   Clear
11:15 PM 65.1 °F - 9.7 °F 11% 29.99 in 10.0 mi ESE 3.5 mph - N/A   Clear
11:35 PM 63.0 °F - 9.0 °F 12% 30.00 in 10.0 mi SW 3.5 mph - N/A   Clear
11:55 PM 60.3 °F - 8.2 °F 13% 30.01 in 10.0 mi WSW 6.9 mph - N/A   Clear